Worcester, MA

7:19 AM EDT on April 27, 2017 (GMT -0400)
Worcester Regional

Weather History for KORH - July, 2013

Change the Weather History Date:

Tuesday, July 2, 2013

  Actual Average Record
Temperature  
Mean Temperature 73 °F 69 °F  
Max Temperature 79 °F 78 °F 97 °F (1901)
Min Temperature 67 °F 60 °F 46 °F (2001)
Degree Days  
Heating Degree Days 0 1  
Month to date heating degree days 0 2  
Since 1 June heating degree days 67 85  
Since 1 July heating degree days 0 2  
Cooling Degree Days 8 5  
Month to date cooling degree days 16 10  
Year to date cooling degree days 143 116  
Since 1 June cooling degree days 119 94  
Growing Degree Days 24 (Base 50)    
Moisture  
Dew Point 70 °F    
Average Humidity 84    
Maximum Humidity 93    
Minimum Humidity 74    
Precipitation  
Precipitation T in 0.12 in 1.79 in (1986)
Month to date precipitation 0.33 0.24  
Year to date precipitation 27.20 23.66  
Sea Level Pressure  
Sea Level Pressure 30.16 in    
Wind  
Wind Speed 10 mph (SSW)    
Max Wind Speed 16 mph    
Max Gust Speed 21 mph    
Visibility 10 miles    
Events Rain    
T = Trace of Precipitation, MM = Missing Value Source: NWS Daily Summary

Daily Weather History Graph

Daily Weather History Graph

Search for Another Location

Airport or City:

Trip Planner

Search our weather history database for the weather conditions in past years. The results will help you decide how hot, cold, wet, or windy it might be!

Date:

Astronomy

Jul. 02, 2013 Rise Set
Actual Time 5:15 AM EDT 8:27 PM EDT
Civil Twilight 4:40 AM EDT 9:02 PM EDT
Nautical Twilight 3:56 AM EDT 9:46 PM EDT
Astronomical Twilight 3:03 AM EDT 10:39 PM EDT
Moon 1:19 AM EDT (7/2) 3:36 PM EDT (7/2)
Length of Visible Light 16h 21m
Length of Day
15h 12m
Waning Crescent, 26% of the Moon is Illuminated
Jul 2
Waning Crescent
Jul 8
New
Jul 15
First Quarter
Jul 22
Full
Jul 29
Last Quarter

Hourly Weather History & Observations

Time (EDT) Temp. Dew Point Humidity Pressure Visibility Wind Dir Wind Speed Gust Speed Precip Events Conditions
12:14 AM 71.1 °F 69.1 °F 93% 30.11 in 10.0 mi SSW 12.7 mph - N/A   Overcast
12:54 AM 71.1 °F 70.0 °F 96% 30.09 in 10.0 mi SSW 11.5 mph - 0.00 in   Overcast
1:54 AM 71.1 °F 69.1 °F 93% 30.10 in 9.0 mi SSW 11.5 mph - 0.00 in Rain Light Rain
2:54 AM 71.1 °F 70.0 °F 96% 30.10 in 10.0 mi SW 11.5 mph - 0.00 in   Overcast
3:54 AM 71.1 °F 69.1 °F 93% 30.11 in 10.0 mi SW 13.8 mph - 0.00 in   Overcast
4:54 AM 71.1 °F 69.1 °F 93% 30.12 in 10.0 mi SSW 9.2 mph - 0.00 in   Overcast
5:54 AM 71.1 °F 69.1 °F 93% 30.13 in 10.0 mi SSW 8.1 mph - 0.00 in   Overcast
6:54 AM 71.1 °F 70.0 °F 96% 30.14 in 10.0 mi SSW 8.1 mph - N/A   Overcast
7:54 AM 71.1 °F 70.0 °F 96% 30.15 in 10.0 mi SSW 8.1 mph - 0.00 in   Overcast
7:59 AM 71.1 °F 70.0 °F 96% 30.16 in 10.0 mi South 9.2 mph - N/A   Overcast
8:54 AM 73.0 °F 70.0 °F 90% 30.15 in 10.0 mi SSW 11.5 mph - N/A   Overcast
10:54 AM 75.0 °F 70.0 °F 84% 30.16 in 10.0 mi SSW 10.4 mph - N/A   Overcast
11:03 AM 75.0 °F 70.0 °F 84% 30.18 in 10.0 mi SSW 9.2 mph 19.6 mph N/A   Overcast
11:54 AM 75.0 °F 70.0 °F 84% 30.17 in 10.0 mi SSW 12.7 mph - N/A   Overcast
12:01 PM 75.0 °F 70.0 °F 84% 30.18 in 10.0 mi SSW 10.4 mph - N/A   Overcast
12:17 PM 75.0 °F 70.0 °F 84% 30.18 in 10.0 mi SSW 11.5 mph - N/A   Overcast
12:25 PM 75.9 °F 70.0 °F 82% 30.18 in 10.0 mi SSW 13.8 mph - N/A   Mostly Cloudy
12:54 PM 77.0 °F 70.0 °F 79% 30.17 in 10.0 mi SSW 11.5 mph - N/A   Overcast
1:54 PM 77.0 °F 70.0 °F 79% 30.17 in 10.0 mi SW 10.4 mph - N/A   Overcast
2:54 PM 78.1 °F 69.1 °F 74% 30.16 in 10.0 mi SW 15.0 mph - N/A   Mostly Cloudy
3:54 PM 78.1 °F 69.1 °F 74% 30.15 in 10.0 mi SSW 11.5 mph - N/A   Overcast
4:09 PM 78.1 °F 70.0 °F 76% 30.16 in 10.0 mi SSW 6.9 mph - N/A   Overcast
4:17 PM 78.1 °F 70.0 °F 76% 30.16 in 10.0 mi SSW 9.2 mph - N/A   Overcast
4:54 PM 78.1 °F 70.0 °F 76% 30.14 in 10.0 mi SSW 9.2 mph - N/A   Mostly Cloudy
5:54 PM 78.1 °F 70.0 °F 76% 30.15 in 10.0 mi SSW 9.2 mph - N/A   Mostly Cloudy
6:54 PM 78.1 °F 69.1 °F 74% 30.16 in 10.0 mi SSW 11.5 mph - N/A   Partly Cloudy
7:54 PM 75.0 °F 70.0 °F 84% 30.17 in 10.0 mi SSW 6.9 mph - N/A   Clear
8:54 PM 73.9 °F 69.1 °F 85% 30.19 in 10.0 mi South 6.9 mph - N/A   Mostly Cloudy
9:35 PM 73.0 °F 70.0 °F 90% 30.21 in 10.0 mi South 10.4 mph - N/A   Overcast
9:54 PM 73.0 °F 70.0 °F 90% 30.20 in 10.0 mi SSW 11.5 mph - N/A   Overcast
10:54 PM 72.0 °F 69.1 °F 91% 30.20 in 10.0 mi SSW 6.9 mph - N/A   Overcast
11:54 PM 72.0 °F 70.0 °F 93% 30.20 in 10.0 mi SSW 5.8 mph - N/A   Overcast